owner,sensor,date,latitude,longitude,vertical_datum,sea_water_temperature,qcFlag 
TABS,ioos:station:wmo:42048:1,2007-03-01T00:00:00Z,27.9396,-96.8429,-2.0,16.2,11111222 
TABS,ioos:station:wmo:42048:1,2007-03-01T00:30:00Z,27.9396,-96.8429,-2.0,16.3,11111222 
TABS,ioos:station:wmo:42048:1,2007-03-01T01:00:00Z,27.9396,-96.8429,-2.0,16.2,11111222 
TABS,ioos:station:wmo:42048:1,2007-03-01T01:30:00Z,27.9396,-96.8429,-2.0,16.0,11111222 
TABS,ioos:station:wmo:42048:1,2007-03-01T02:00:00Z,27.9396,-96.8429,-2.0,16.0,11111222 
TABS,ioos:station:wmo:42048:1,2007-03-01T02:30:00Z,27.9396,-96.8429,-2.0,16.2,11111222 
TABS,ioos:station:wmo:42048:1,2007-03-01T03:00:00Z,27.9396,-96.8429,-2.0,16.0,11111222 
TABS,ioos:station:wmo:42048:1,2007-03-01T03:30:00Z,27.9396,-96.8429,-2.0,16.0,11111222 
TABS,ioos:station:wmo:42048:1,2007-03-02T20:30:00Z,27.9396,-96.8429,-2.0,16.34,11111222 
TABS,ioos:station:wmo:42048:1,2007-03-02T21:00:00Z,27.9396,-96.8429,-2.0,16.58,11111222 
TABS,ioos:station:wmo:42048:1,2007-03-02T21:30:00Z,27.9396,-96.8429,-2.0,16.59,11111222 
TABS,ioos:station:wmo:42048:1,2007-03-02T22:00:00Z,27.9396,-96.8429,-2.0,16.59,11111222 
TABS,ioos:station:wmo:42048:1,2007-03-02T22:30:00Z,27.9396,-96.8429,-2.0,16.71,11111222 
TABS,ioos:station:wmo:42048:1,2007-03-02T23:00:00Z,27.9396,-96.8429,-2.0,16.74,11111222 
TABS,ioos:station:wmo:42048:1,2007-03-02T23:30:00Z,27.9396,-96.8429,-2.0,16.63,11111222 
TABS,ioos:station:wmo:42048:1,2007-03-03T00:00:00Z,27.9396,-96.8429,-2.0,16.51,11111222 
TABS,ioos:station:wmo:42048:1,2007-03-03T00:30:00Z,27.9396,-96.8429,-2.0,16.47,11111222 
TABS,ioos:station:wmo:42048:1,2007-03-03T01:00:00Z,27.9396,-96.8429,-2.0,16.39,11111222 
TABS,ioos:station:wmo:42048:1,2007-03-03T01:30:00Z,27.9396,-96.8429,-2.0,16.36,11111222 
TABS,ioos:station:wmo:42048:1,2007-03-03T02:00:00Z,27.9396,-96.8429,-2.0,16.32,11111222 
TABS,ioos:station:wmo:42048:1,2007-03-03T02:30:00Z,27.9396,-96.8429,-2.0,16.32,11111222 
TABS,ioos:station:wmo:42048:1,2007-03-03T03:00:00Z,27.9396,-96.8429,-2.0,16.32,11111222 
TABS,ioos:station:wmo:42048:1,2007-03-03T03:30:00Z,27.9396,-96.8429,-2.0,16.26,11111222 
TABS,ioos:station:wmo:42048:1,2007-03-03T04:00:00Z,27.9396,-96.8429,-2.0,16.21,11111222 
TABS,ioos:station:wmo:42048:1,2007-03-03T04:30:00Z,27.9396,-96.8429,-2.0,16.2,11111222 
TABS,ioos:station:wmo:42048:1,2007-03-03T05:00:00Z,27.9396,-96.8429,-2.0,16.16,11111222 
TABS,ioos:station:wmo:42048:1,2007-03-03T05:30:00Z,27.9396,-96.8429,-2.0,16.16,11111222 
TABS,ioos:station:wmo:42048:1,2007-03-03T06:00:00Z,27.9396,-96.8429,-2.0,16.13,11111222 
TABS,ioos:station:wmo:42048:1,2007-03-03T06:30:00Z,27.9396,-96.8429,-2.0,16.12,11111222 
TABS,ioos:station:wmo:42048:1,2007-03-03T07:00:00Z,27.9396,-96.8429,-2.0,16.12,11111222 
TABS,ioos:station:wmo:42048:1,2007-03-03T07:30:00Z,27.9396,-96.8429,-2.0,16.11,11111222 
TABS,ioos:station:wmo:42048:1,2007-03-03T08:00:00Z,27.9396,-96.8429,-2.0,16.09,11111222 
TABS,ioos:station:wmo:42048:1,2007-03-03T08:30:00Z,27.9396,-96.8429,-2.0,16.09,11111222 
TABS,ioos:station:wmo:42048:1,2007-03-03T09:00:00Z,27.9396,-96.8429,-2.0,16.1,11111222 
TABS,ioos:station:wmo:42048:1,2007-03-03T09:30:00Z,27.9396,-96.8429,-2.0,16.09,11111222 
TABS,ioos:station:wmo:42048:1,2007-03-03T10:00:00Z,27.9396,-96.8429,-2.0,16.08,11111222 
TABS,ioos:station:wmo:42048:1,2007-03-03T10:30:00Z,27.9396,-96.8429,-2.0,16.07,11111222 
TABS,ioos:station:wmo:42048:1,2007-03-03T11:00:00Z,27.9396,-96.8429,-2.0,16.07,11111222 
TABS,ioos:station:wmo:42048:1,2007-03-03T11:30:00Z,27.9396,-96.8429,-2.0,16.07,11111222 
TABS,ioos:station:wmo:42048:1,2007-03-03T12:00:00Z,27.9396,-96.8429,-2.0,16.04,11111222 
TABS,ioos:station:wmo:42048:1,2007-03-03T12:30:00Z,27.9396,-96.8429,-2.0,16.01,11111222 
TABS,ioos:station:wmo:42048:1,2007-03-03T13:00:00Z,27.9396,-96.8429,-2.0,15.98,11111222 
TABS,ioos:station:wmo:42048:1,2007-03-03T13:30:00Z,27.9396,-96.8429,-2.0,15.94,11111222 
TABS,ioos:station:wmo:42048:1,2007-03-03T14:00:00Z,27.9396,-96.8429,-2.0,15.91,11111222 
TABS,ioos:station:wmo:42048:1,2007-03-03T14:30:00Z,27.9396,-96.8429,-2.0,15.92,11111222 
TABS,ioos:station:wmo:42048:1,2007-03-03T15:00:00Z,27.9396,-96.8429,-2.0,15.95,11111222 
TABS,ioos:station:wmo:42048:1,2007-03-03T15:30:00Z,27.9396,-96.8429,-2.0,15.99,11111222 
TABS,ioos:station:wmo:42048:1,2007-03-03T16:00:00Z,27.9396,-96.8429,-2.0,16.02,11111222 
TABS,ioos:station:wmo:42048:1,2007-03-03T16:30:00Z,27.9396,-96.8429,-2.0,16.07,11111222 
TABS,ioos:station:wmo:42048:1,2007-03-03T17:00:00Z,27.9396,-96.8429,-2.0,16.11,11111222 
TABS,ioos:station:wmo:42048:1,2007-03-03T17:30:00Z,27.9396,-96.8429,-2.0,16.15,11111222 
TABS,ioos:station:wmo:42048:1,2007-03-03T18:00:00Z,27.9396,-96.8429,-2.0,16.21,11111222 
TABS,ioos:station:wmo:42048:1,2007-03-03T18:30:00Z,27.9396,-96.8429,-2.0,16.32,11111222 
TABS,ioos:station:wmo:42048:1,2007-03-03T19:00:00Z,27.9396,-96.8429,-2.0,16.44,11111222 
TABS,ioos:station:wmo:42048:1,2007-03-03T19:30:00Z,27.9396,-96.8429,-2.0,16.54,11111222 
TABS,ioos:station:wmo:42048:1,2007-03-03T20:00:00Z,27.9396,-96.8429,-2.0,16.57,11111222 
TABS,ioos:station:wmo:42048:1,2007-03-03T20:30:00Z,27.9396,-96.8429,-2.0,16.47,11111222 
TABS,ioos:station:wmo:42048:1,2007-03-03T21:00:00Z,27.9396,-96.8429,-2.0,16.43,11111222 
TABS,ioos:station:wmo:42048:1,2007-03-03T21:30:00Z,27.9396,-96.8429,-2.0,16.34,11111222 
TABS,ioos:station:wmo:42048:1,2007-03-03T22:00:00Z,27.9396,-96.8429,-2.0,16.3,11111222 
TABS,ioos:station:wmo:42048:1,2007-03-03T22:30:00Z,27.9396,-96.8429,-2.0,16.43,11111222 
TABS,ioos:station:wmo:42048:1,2007-03-03T23:00:00Z,27.9396,-96.8429,-2.0,16.39,11111222 
TABS,ioos:station:wmo:42048:1,2007-03-03T23:30:00Z,27.9396,-96.8429,-2.0,16.37,11111222 
TABS,ioos:station:wmo:42048:1,2007-03-04T00:00:00Z,27.9396,-96.8429,-2.0,16.32,11111222 
TABS,ioos:station:wmo:42048:1,2007-03-04T00:30:00Z,27.9396,-96.8429,-2.0,16.36,11111222 
TABS,ioos:station:wmo:42048:1,2007-03-04T01:00:00Z,27.9396,-96.8429,-2.0,16.32,11111222 
TABS,ioos:station:wmo:42048:1,2007-03-04T01:30:00Z,27.9396,-96.8429,-2.0,16.25,11111222 
TABS,ioos:station:wmo:42048:1,2007-03-04T02:00:00Z,27.9396,-96.8429,-2.0,16.24,11111222 
TABS,ioos:station:wmo:42048:1,2007-03-04T02:30:00Z,27.9396,-96.8429,-2.0,16.2,11111222 
TABS,ioos:station:wmo:42048:1,2007-03-04T03:00:00Z,27.9396,-96.8429,-2.0,16.23,11111222 
TABS,ioos:station:wmo:42048:1,2007-03-04T03:30:00Z,27.9396,-96.8429,-2.0,16.22,11111222 
TABS,ioos:station:wmo:42048:1,2007-03-04T04:00:00Z,27.9396,-96.8429,-2.0,16.09,11111222 
TABS,ioos:station:wmo:42048:1,2007-03-04T04:30:00Z,27.9396,-96.8429,-2.0,16.04,11111222 
TABS,ioos:station:wmo:42048:1,2007-03-04T05:00:00Z,27.9396,-96.8429,-2.0,15.93,11111222 
TABS,ioos:station:wmo:42048:1,2007-03-04T05:30:00Z,27.9396,-96.8429,-2.0,15.9,11111222 
TABS,ioos:station:wmo:42048:1,2007-03-04T06:00:00Z,27.9396,-96.8429,-2.0,15.88,11111222 
TABS,ioos:station:wmo:42048:1,2007-03-04T06:30:00Z,27.9396,-96.8429,-2.0,15.82,11111222 
TABS,ioos:station:wmo:42048:1,2007-03-04T07:00:00Z,27.9396,-96.8429,-2.0,15.79,11111222 
TABS,ioos:station:wmo:42048:1,2007-03-04T07:30:00Z,27.9396,-96.8429,-2.0,15.77,11111222 
TABS,ioos:station:wmo:42048:1,2007-03-04T08:00:00Z,27.9396,-96.8429,-2.0,15.73,11111222 
TABS,ioos:station:wmo:42048:1,2007-03-04T08:30:00Z,27.9396,-96.8429,-2.0,15.71,11111222 
TABS,ioos:station:wmo:42048:1,2007-03-04T09:00:00Z,27.9396,-96.8429,-2.0,15.69,11111222 
TABS,ioos:station:wmo:42048:1,2007-03-04T09:30:00Z,27.9396,-96.8429,-2.0,15.69,11111222 
TABS,ioos:station:wmo:42048:1,2007-03-04T10:00:00Z,27.9396,-96.8429,-2.0,15.7,11111222 
TABS,ioos:station:wmo:42048:1,2007-03-04T10:30:00Z,27.9396,-96.8429,-2.0,15.65,11111222 
TABS,ioos:station:wmo:42048:1,2007-03-04T11:00:00Z,27.9396,-96.8429,-2.0,15.63,11111222 
TABS,ioos:station:wmo:42048:1,2007-03-04T11:30:00Z,27.9396,-96.8429,-2.0,15.62,11111222 
TABS,ioos:station:wmo:42048:1,2007-03-04T12:00:00Z,27.9396,-96.8429,-2.0,15.59,11111222 
TABS,ioos:station:wmo:42048:1,2007-03-04T12:30:00Z,27.9396,-96.8429,-2.0,15.57,11111222 
TABS,ioos:station:wmo:42048:1,2007-03-04T13:00:00Z,27.9396,-96.8429,-2.0,15.55,11111222 
TABS,ioos:station:wmo:42048:1,2007-03-04T13:30:00Z,27.9396,-96.8429,-2.0,15.54,11111222 
TABS,ioos:station:wmo:42048:1,2007-03-04T14:00:00Z,27.9396,-96.8429,-2.0,15.52,11111222 
TABS,ioos:station:wmo:42048:1,2007-03-04T14:30:00Z,27.9396,-96.8429,-2.0,15.51,11111222 
TABS,ioos:station:wmo:42048:1,2007-03-04T15:00:00Z,27.9396,-96.8429,-2.0,15.53,11111222 
TABS,ioos:station:wmo:42048:1,2007-03-04T15:30:00Z,27.9396,-96.8429,-2.0,15.54,11111222 
TABS,ioos:station:wmo:42048:1,2007-03-04T16:00:00Z,27.9396,-96.8429,-2.0,15.57,11111222 
TABS,ioos:station:wmo:42048:1,2007-03-04T16:30:00Z,27.9396,-96.8429,-2.0,15.57,11111222 
TABS,ioos:station:wmo:42048:1,2007-03-04T17:00:00Z,27.9396,-96.8429,-2.0,15.59,11111222 
TABS,ioos:station:wmo:42048:1,2007-03-04T17:30:00Z,27.9396,-96.8429,-2.0,15.6,11111222 
TABS,ioos:station:wmo:42048:1,2007-03-04T18:00:00Z,27.9396,-96.8429,-2.0,15.61,11111222 
TABS,ioos:station:wmo:42048:1,2007-03-04T18:30:00Z,27.9396,-96.8429,-2.0,15.64,11111222 
TABS,ioos:station:wmo:42048:1,2007-03-04T19:00:00Z,27.9396,-96.8429,-2.0,15.66,11111222 
TABS,ioos:station:wmo:42048:1,2007-03-04T19:30:00Z,27.9396,-96.8429,-2.0,15.68,11111222 
TABS,ioos:station:wmo:42048:1,2007-03-04T20:00:00Z,27.9396,-96.8429,-2.0,15.74,11111222 
TABS,ioos:station:wmo:42048:1,2007-03-04T20:30:00Z,27.9396,-96.8429,-2.0,15.72,11111222 
TABS,ioos:station:wmo:42048:1,2007-03-04T21:00:00Z,27.9396,-96.8429,-2.0,15.68,11111222 
TABS,ioos:station:wmo:42048:1,2007-03-04T21:30:00Z,27.9396,-96.8429,-2.0,15.72,11111222 
TABS,ioos:station:wmo:42048:1,2007-03-04T22:00:00Z,27.9396,-96.8429,-2.0,15.81,11111222 
TABS,ioos:station:wmo:42048:1,2007-03-04T22:30:00Z,27.9396,-96.8429,-2.0,15.83,11111222 
TABS,ioos:station:wmo:42048:1,2007-03-04T23:00:00Z,27.9396,-96.8429,-2.0,15.79,11111222 
TABS,ioos:station:wmo:42048:1,2007-03-04T23:30:00Z,27.9396,-96.8429,-2.0,15.74,11111222 
TABS,ioos:station:wmo:42048:1,2007-03-05T00:00:00Z,27.9396,-96.8429,-2.0,15.71,11111222 
TABS,ioos:station:wmo:42048:1,2007-03-05T00:30:00Z,27.9396,-96.8429,-2.0,15.68,11111222 
TABS,ioos:station:wmo:42048:1,2007-03-05T01:00:00Z,27.9396,-96.8429,-2.0,15.64,11111222 
TABS,ioos:station:wmo:42048:1,2007-03-05T01:30:00Z,27.9396,-96.8429,-2.0,15.61,11111222 
TABS,ioos:station:wmo:42048:1,2007-03-05T02:00:00Z,27.9396,-96.8429,-2.0,15.58,11111222 
TABS,ioos:station:wmo:42048:1,2007-03-05T02:30:00Z,27.9396,-96.8429,-2.0,15.53,11111222 
TABS,ioos:station:wmo:42048:1,2007-03-05T03:00:00Z,27.9396,-96.8429,-2.0,15.5,11111222 
TABS,ioos:station:wmo:42048:1,2007-03-05T03:30:00Z,27.9396,-96.8429,-2.0,15.48,11111222 
TABS,ioos:station:wmo:42048:1,2007-03-05T04:00:00Z,27.9396,-96.8429,-2.0,15.49,11111222 
TABS,ioos:station:wmo:42048:1,2007-03-05T04:30:00Z,27.9396,-96.8429,-2.0,15.48,11111222 
TABS,ioos:station:wmo:42048:1,2007-03-05T05:00:00Z,27.9396,-96.8429,-2.0,15.46,11111222 
TABS,ioos:station:wmo:42048:1,2007-03-05T05:30:00Z,27.9396,-96.8429,-2.0,15.4,11111222 
TABS,ioos:station:wmo:42048:1,2007-03-05T06:00:00Z,27.9396,-96.8429,-2.0,15.35,11111222 
TABS,ioos:station:wmo:42048:1,2007-03-05T06:30:00Z,27.9396,-96.8429,-2.0,15.37,11111222 
TABS,ioos:station:wmo:42048:1,2007-03-05T07:00:00Z,27.9396,-96.8429,-2.0,15.37,11111222 
TABS,ioos:station:wmo:42048:1,2007-03-05T07:30:00Z,27.9396,-96.8429,-2.0,15.38,11111222 
TABS,ioos:station:wmo:42048:1,2007-03-05T08:00:00Z,27.9396,-96.8429,-2.0,15.34,11111222 
TABS,ioos:station:wmo:42048:1,2007-03-05T08:30:00Z,27.9396,-96.8429,-2.0,15.34,11111222 
TABS,ioos:station:wmo:42048:1,2007-03-05T09:00:00Z,27.9396,-96.8429,-2.0,15.26,11111222 
TABS,ioos:station:wmo:42048:1,2007-03-05T09:30:00Z,27.9396,-96.8429,-2.0,15.25,11111222 
TABS,ioos:station:wmo:42048:1,2007-03-05T10:00:00Z,27.9396,-96.8429,-2.0,15.2,11111222 
TABS,ioos:station:wmo:42048:1,2007-03-05T10:30:00Z,27.9396,-96.8429,-2.0,15.08,11111222 
TABS,ioos:station:wmo:42048:1,2007-03-05T11:00:00Z,27.9396,-96.8429,-2.0,15.1,11111222 
TABS,ioos:station:wmo:42048:1,2007-03-05T11:30:00Z,27.9396,-96.8429,-2.0,15.03,11111222 
TABS,ioos:station:wmo:42048:1,2007-03-05T12:00:00Z,27.9396,-96.8429,-2.0,15.01,11111222 
TABS,ioos:station:wmo:42048:1,2007-03-05T12:30:00Z,27.9396,-96.8429,-2.0,15.01,11111222 
TABS,ioos:station:wmo:42048:1,2007-03-05T13:00:00Z,27.9396,-96.8429,-2.0,14.96,11111222 
TABS,ioos:station:wmo:42048:1,2007-03-05T13:30:00Z,27.9396,-96.8429,-2.0,14.92,11111222 
TABS,ioos:station:wmo:42048:1,2007-03-05T14:00:00Z,27.9396,-96.8429,-2.0,14.92,11111222 
TABS,ioos:station:wmo:42048:1,2007-03-05T14:30:00Z,27.9396,-96.8429,-2.0,14.93,11111222 
TABS,ioos:station:wmo:42048:1,2007-03-05T15:00:00Z,27.9396,-96.8429,-2.0,14.95,11111222 
TABS,ioos:station:wmo:42048:1,2007-03-05T15:30:00Z,27.9396,-96.8429,-2.0,14.99,11111222 
TABS,ioos:station:wmo:42048:1,2007-03-05T16:00:00Z,27.9396,-96.8429,-2.0,15.03,11111222 
TABS,ioos:station:wmo:42048:1,2007-03-05T16:30:00Z,27.9396,-96.8429,-2.0,15.05,11111222 
TABS,ioos:station:wmo:42048:1,2007-03-05T17:00:00Z,27.9396,-96.8429,-2.0,15.1,11111222 
TABS,ioos:station:wmo:42048:1,2007-03-05T17:30:00Z,27.9396,-96.8429,-2.0,15.15,11111222 
TABS,ioos:station:wmo:42048:1,2007-03-05T18:00:00Z,27.9396,-96.8429,-2.0,15.22,11111222 
TABS,ioos:station:wmo:42048:1,2007-03-05T18:30:00Z,27.9396,-96.8429,-2.0,15.27,11111222 
TABS,ioos:station:wmo:42048:1,2007-03-05T19:00:00Z,27.9396,-96.8429,-2.0,15.31,11111222 
TABS,ioos:station:wmo:42048:1,2007-03-05T19:30:00Z,27.9396,-96.8429,-2.0,15.42,11111222 
TABS,ioos:station:wmo:42048:1,2007-03-05T20:00:00Z,27.9396,-96.8429,-2.0,15.48,11111222 
TABS,ioos:station:wmo:42048:1,2007-03-05T20:30:00Z,27.9396,-96.8429,-2.0,15.47,11111222 
TABS,ioos:station:wmo:42048:1,2007-03-05T21:00:00Z,27.9396,-96.8429,-2.0,15.6,11111222 
TABS,ioos:station:wmo:42048:1,2007-03-05T21:30:00Z,27.9396,-96.8429,-2.0,15.58,11111222 
TABS,ioos:station:wmo:42048:1,2007-03-05T22:00:00Z,27.9396,-96.8429,-2.0,15.81,11111222 
TABS,ioos:station:wmo:42048:1,2007-03-05T22:30:00Z,27.9396,-96.8429,-2.0,15.78,11111222 
TABS,ioos:station:wmo:42048:1,2007-03-05T23:00:00Z,27.9396,-96.8429,-2.0,16.04,11111222 
TABS,ioos:station:wmo:42048:1,2007-03-05T23:30:00Z,27.9396,-96.8429,-2.0,16.11,11111222 
TABS,ioos:station:wmo:42048:1,2007-03-06T00:00:00Z,27.9396,-96.8429,-2.0,16.03,11111222 
TABS,ioos:station:wmo:42048:1,2007-03-06T00:30:00Z,27.9396,-96.8429,-2.0,15.75,11111222 
TABS,ioos:station:wmo:42048:1,2007-03-06T01:00:00Z,27.9396,-96.8429,-2.0,15.64,11111222 
TABS,ioos:station:wmo:42048:1,2007-03-06T01:30:00Z,27.9396,-96.8429,-2.0,15.8,11111222 
TABS,ioos:station:wmo:42048:1,2007-03-06T02:00:00Z,27.9396,-96.8429,-2.0,15.7,11111222 
TABS,ioos:station:wmo:42048:1,2007-03-06T02:30:00Z,27.9396,-96.8429,-2.0,15.55,11111222 
TABS,ioos:station:wmo:42048:1,2007-03-06T03:00:00Z,27.9396,-96.8429,-2.0,15.49,11111222 
TABS,ioos:station:wmo:42048:1,2007-03-06T03:30:00Z,27.9396,-96.8429,-2.0,15.45,11111222 
TABS,ioos:station:wmo:42048:1,2007-03-06T04:00:00Z,27.9396,-96.8429,-2.0,15.41,11111222 
TABS,ioos:station:wmo:42048:1,2007-03-06T04:30:00Z,27.9396,-96.8429,-2.0,15.39,11111222 
TABS,ioos:station:wmo:42048:1,2007-03-06T05:00:00Z,27.9396,-96.8429,-2.0,15.34,11111222 
TABS,ioos:station:wmo:42048:1,2007-03-06T05:30:00Z,27.9396,-96.8429,-2.0,15.35,11111222 
TABS,ioos:station:wmo:42048:1,2007-03-06T06:00:00Z,27.9396,-96.8429,-2.0,15.31,11111222 
TABS,ioos:station:wmo:42048:1,2007-03-06T06:30:00Z,27.9396,-96.8429,-2.0,15.31,11111222 
TABS,ioos:station:wmo:42048:1,2007-03-06T07:00:00Z,27.9396,-96.8429,-2.0,15.3,11111222 
TABS,ioos:station:wmo:42048:1,2007-03-06T07:30:00Z,27.9396,-96.8429,-2.0,15.3,11111222 
TABS,ioos:station:wmo:42048:1,2007-03-06T08:00:00Z,27.9396,-96.8429,-2.0,15.29,11111222 
TABS,ioos:station:wmo:42048:1,2007-03-06T08:30:00Z,27.9396,-96.8429,-2.0,15.28,11111222 
TABS,ioos:station:wmo:42048:1,2007-03-06T09:00:00Z,27.9396,-96.8429,-2.0,15.28,11111222 
TABS,ioos:station:wmo:42048:1,2007-03-06T09:30:00Z,27.9396,-96.8429,-2.0,15.27,11111222 
TABS,ioos:station:wmo:42048:1,2007-03-06T10:00:00Z,27.9396,-96.8429,-2.0,15.27,11111222 
TABS,ioos:station:wmo:42048:1,2007-03-06T10:30:00Z,27.9396,-96.8429,-2.0,15.25,11111222 
TABS,ioos:station:wmo:42048:1,2007-03-06T11:00:00Z,27.9396,-96.8429,-2.0,15.25,11111222 
TABS,ioos:station:wmo:42048:1,2007-03-06T11:30:00Z,27.9396,-96.8429,-2.0,15.23,11111222 
TABS,ioos:station:wmo:42048:1,2007-03-06T12:00:00Z,27.9396,-96.8429,-2.0,15.2,11111222 
TABS,ioos:station:wmo:42048:1,2007-03-06T12:30:00Z,27.9396,-96.8429,-2.0,15.23,11111222 
TABS,ioos:station:wmo:42048:1,2007-03-06T13:00:00Z,27.9396,-96.8429,-2.0,15.22,11111222 
TABS,ioos:station:wmo:42048:1,2007-03-06T13:30:00Z,27.9396,-96.8429,-2.0,15.17,11111222 
TABS,ioos:station:wmo:42048:1,2007-03-06T14:00:00Z,27.9396,-96.8429,-2.0,15.15,11111222 
TABS,ioos:station:wmo:42048:1,2007-03-06T14:30:00Z,27.9396,-96.8429,-2.0,15.19,11111222 
TABS,ioos:station:wmo:42048:1,2007-03-06T15:00:00Z,27.9396,-96.8429,-2.0,15.24,11111222 
TABS,ioos:station:wmo:42048:1,2007-03-06T15:30:00Z,27.9396,-96.8429,-2.0,15.3,11111222 
TABS,ioos:station:wmo:42048:1,2007-03-06T16:00:00Z,27.9396,-96.8429,-2.0,15.38,11111222 
TABS,ioos:station:wmo:42048:1,2007-03-06T16:30:00Z,27.9396,-96.8429,-2.0,15.43,11111222 
TABS,ioos:station:wmo:42048:1,2007-03-06T17:00:00Z,27.9396,-96.8429,-2.0,15.47,11111222 
TABS,ioos:station:wmo:42048:1,2007-03-06T17:30:00Z,27.9396,-96.8429,-2.0,15.53,11111222 
TABS,ioos:station:wmo:42048:1,2007-03-06T18:00:00Z,27.9396,-96.8429,-2.0,15.57,11111222 
TABS,ioos:station:wmo:42048:1,2007-03-06T18:30:00Z,27.9396,-96.8429,-2.0,15.62,11111222 
TABS,ioos:station:wmo:42048:1,2007-03-06T19:00:00Z,27.9396,-96.8429,-2.0,15.64,11111222 
TABS,ioos:station:wmo:42048:1,2007-03-06T19:30:00Z,27.9396,-96.8429,-2.0,15.66,11111222 
TABS,ioos:station:wmo:42048:1,2007-03-06T20:00:00Z,27.9396,-96.8429,-2.0,15.69,11111222 
TABS,ioos:station:wmo:42048:1,2007-03-06T20:30:00Z,27.9396,-96.8429,-2.0,15.69,11111222 
TABS,ioos:station:wmo:42048:1,2007-03-06T21:00:00Z,27.9396,-96.8429,-2.0,15.72,11111222 
TABS,ioos:station:wmo:42048:1,2007-03-06T21:30:00Z,27.9396,-96.8429,-2.0,15.77,11111222 
TABS,ioos:station:wmo:42048:1,2007-03-06T22:00:00Z,27.9396,-96.8429,-2.0,15.79,11111222 
TABS,ioos:station:wmo:42048:1,2007-03-06T22:30:00Z,27.9396,-96.8429,-2.0,15.88,11111222 
TABS,ioos:station:wmo:42048:1,2007-03-06T23:00:00Z,27.9396,-96.8429,-2.0,16.2,11111222 
TABS,ioos:station:wmo:42048:1,2007-03-06T23:30:00Z,27.9396,-96.8429,-2.0,16.29,11111222 
TABS,ioos:station:wmo:42048:1,2007-03-07T00:00:00Z,27.9396,-96.8429,-2.0,16.29,11111222 
TABS,ioos:station:wmo:42048:1,2007-03-07T00:30:00Z,27.9396,-96.8429,-2.0,16.26,11111222 
TABS,ioos:station:wmo:42048:1,2007-03-07T01:00:00Z,27.9396,-96.8429,-2.0,16.2,11111222 
TABS,ioos:station:wmo:42048:1,2007-03-07T01:30:00Z,27.9396,-96.8429,-2.0,16.17,11111222 
TABS,ioos:station:wmo:42048:1,2007-03-07T02:00:00Z,27.9396,-96.8429,-2.0,16.1,11111222 
TABS,ioos:station:wmo:42048:1,2007-03-07T02:30:00Z,27.9396,-96.8429,-2.0,16.0,11111222 
TABS,ioos:station:wmo:42048:1,2007-03-07T03:00:00Z,27.9396,-96.8429,-2.0,16.0,11111222 
TABS,ioos:station:wmo:42048:1,2007-03-07T03:30:00Z,27.9396,-96.8429,-2.0,15.88,11111222 
TABS,ioos:station:wmo:42048:1,2007-03-07T04:00:00Z,27.9396,-96.8429,-2.0,15.7,11111222 
TABS,ioos:station:wmo:42048:1,2007-03-07T04:30:00Z,27.9396,-96.8429,-2.0,15.73,11111222 
TABS,ioos:station:wmo:42048:1,2007-03-07T05:00:00Z,27.9396,-96.8429,-2.0,15.81,11111222 
TABS,ioos:station:wmo:42048:1,2007-03-10T01:00:00Z,27.9396,-96.8429,-2.0,18.16,11111222 
TABS,ioos:station:wmo:42048:1,2007-03-10T01:30:00Z,27.9396,-96.8429,-2.0,17.97,11111222 
TABS,ioos:station:wmo:42048:1,2007-03-10T02:00:00Z,27.9396,-96.8429,-2.0,17.84,11111222 
TABS,ioos:station:wmo:42048:1,2007-03-10T02:30:00Z,27.9396,-96.8429,-2.0,17.75,11111222 
TABS,ioos:station:wmo:42048:1,2007-03-10T03:00:00Z,27.9396,-96.8429,-2.0,17.72,11111222 
TABS,ioos:station:wmo:42048:1,2007-03-10T03:30:00Z,27.9396,-96.8429,-2.0,17.72,11111222 
TABS,ioos:station:wmo:42048:1,2007-03-10T04:00:00Z,27.9396,-96.8429,-2.0,17.83,11111222 
TABS,ioos:station:wmo:42048:1,2007-03-10T04:30:00Z,27.9396,-96.8429,-2.0,17.88,11111222 
TABS,ioos:station:wmo:42048:1,2007-03-10T05:00:00Z,27.9396,-96.8429,-2.0,17.83,11111222 
TABS,ioos:station:wmo:42048:1,2007-03-10T05:30:00Z,27.9396,-96.8429,-2.0,17.78,11111222 
TABS,ioos:station:wmo:42048:1,2007-03-10T06:00:00Z,27.9396,-96.8429,-2.0,17.75,11111222 
TABS,ioos:station:wmo:42048:1,2007-03-10T06:30:00Z,27.9396,-96.8429,-2.0,17.74,11111222 
TABS,ioos:station:wmo:42048:1,2007-03-10T07:00:00Z,27.9396,-96.8429,-2.0,17.72,11111222 
TABS,ioos:station:wmo:42048:1,2007-03-10T07:30:00Z,27.9396,-96.8429,-2.0,17.71,11111222 
TABS,ioos:station:wmo:42048:1,2007-03-10T08:00:00Z,27.9396,-96.8429,-2.0,17.69,11111222 
TABS,ioos:station:wmo:42048:1,2007-03-10T08:30:00Z,27.9396,-96.8429,-2.0,17.77,11111222 
TABS,ioos:station:wmo:42048:1,2007-03-10T09:00:00Z,27.9396,-96.8429,-2.0,17.67,11111222 
TABS,ioos:station:wmo:42048:1,2007-03-10T09:30:00Z,27.9396,-96.8429,-2.0,17.67,11111222 
TABS,ioos:station:wmo:42048:1,2007-03-10T10:00:00Z,27.9396,-96.8429,-2.0,17.79,11111222 
TABS,ioos:station:wmo:42048:1,2007-03-10T10:30:00Z,27.9396,-96.8429,-2.0,17.89,11111222 
TABS,ioos:station:wmo:42048:1,2007-03-10T11:00:00Z,27.9396,-96.8429,-2.0,17.97,11111222 
TABS,ioos:station:wmo:42048:1,2007-03-10T11:30:00Z,27.9396,-96.8429,-2.0,18.02,11111222 
TABS,ioos:station:wmo:42048:1,2007-03-10T12:00:00Z,27.9396,-96.8429,-2.0,18.01,11111222 
TABS,ioos:station:wmo:42048:1,2007-03-10T12:30:00Z,27.9396,-96.8429,-2.0,18.03,11111222 
TABS,ioos:station:wmo:42048:1,2007-03-10T13:00:00Z,27.9396,-96.8429,-2.0,18.04,11111222 
TABS,ioos:station:wmo:42048:1,2007-03-10T13:30:00Z,27.9396,-96.8429,-2.0,18.05,11111222 
TABS,ioos:station:wmo:42048:1,2007-03-10T14:00:00Z,27.9396,-96.8429,-2.0,18.08,11111222 
TABS,ioos:station:wmo:42048:1,2007-03-10T14:30:00Z,27.9396,-96.8429,-2.0,18.11,11111222 
TABS,ioos:station:wmo:42048:1,2007-03-10T15:00:00Z,27.9396,-96.8429,-2.0,18.16,11111222 
TABS,ioos:station:wmo:42048:1,2007-03-10T15:30:00Z,27.9396,-96.8429,-2.0,18.22,11111222 
TABS,ioos:station:wmo:42048:1,2007-03-10T16:00:00Z,27.9396,-96.8429,-2.0,18.3,11111222 
TABS,ioos:station:wmo:42048:1,2007-03-10T16:30:00Z,27.9396,-96.8429,-2.0,18.37,11111222 
TABS,ioos:station:wmo:42048:1,2007-03-10T17:00:00Z,27.9396,-96.8429,-2.0,18.43,11111222 
TABS,ioos:station:wmo:42048:1,2007-03-10T17:30:00Z,27.9396,-96.8429,-2.0,18.45,11111222 
TABS,ioos:station:wmo:42048:1,2007-03-10T18:00:00Z,27.9396,-96.8429,-2.0,18.51,11111222 
TABS,ioos:station:wmo:42048:1,2007-03-10T18:30:00Z,27.9396,-96.8429,-2.0,18.6,11111222 
TABS,ioos:station:wmo:42048:1,2007-03-10T19:00:00Z,27.9396,-96.8429,-2.0,18.59,11111222 
TABS,ioos:station:wmo:42048:1,2007-03-10T19:30:00Z,27.9396,-96.8429,-2.0,18.61,11111222 
TABS,ioos:station:wmo:42048:1,2007-03-10T20:00:00Z,27.9396,-96.8429,-2.0,18.59,11111222 
TABS,ioos:station:wmo:42048:1,2007-03-10T20:30:00Z,27.9396,-96.8429,-2.0,18.52,11111222 
TABS,ioos:station:wmo:42048:1,2007-03-10T21:00:00Z,27.9396,-96.8429,-2.0,18.52,11111222 
TABS,ioos:station:wmo:42048:1,2007-03-10T21:30:00Z,27.9396,-96.8429,-2.0,18.46,11111222 
TABS,ioos:station:wmo:42048:1,2007-03-10T22:00:00Z,27.9396,-96.8429,-2.0,18.29,11111222 
TABS,ioos:station:wmo:42048:1,2007-03-10T22:30:00Z,27.9396,-96.8429,-2.0,18.27,11111222 
TABS,ioos:station:wmo:42048:1,2007-03-10T23:00:00Z,27.9396,-96.8429,-2.0,18.78,11111222 
TABS,ioos:station:wmo:42048:1,2007-03-10T23:30:00Z,27.9396,-96.8429,-2.0,19.0,11111222 
TABS,ioos:station:wmo:42048:1,2007-03-11T00:00:00Z,27.9396,-96.8429,-2.0,19.22,11111222 
TABS,ioos:station:wmo:42048:1,2007-03-11T00:30:00Z,27.9396,-96.8429,-2.0,19.25,11111222 
TABS,ioos:station:wmo:42048:1,2007-03-11T01:00:00Z,27.9396,-96.8429,-2.0,19.28,11111222 
TABS,ioos:station:wmo:42048:1,2007-03-11T01:30:00Z,27.9396,-96.8429,-2.0,19.24,11111222 
TABS,ioos:station:wmo:42048:1,2007-03-11T02:00:00Z,27.9396,-96.8429,-2.0,19.2,11111222 